Wind_Speed
9 8 7 5 3 2 2 2 3 3 4 5 7 9 10 11 11 11 11 11 11 12 11 11 10 10 10 11 11 11 12 12 12 12 13 13 13 13 14 13 13 13 13 13 12 13 13 13 13
8 7 6 4 3 2 1 1 2 4 6 8 9 10 11 12 12 11 12 12 12 13 12 11 11 12 12 12 12 12 12 12 12 13 13 13 14 14 14 14 13 14 14 13 13 14 14 14 14
8 7 6 4 2 1 2 2 3 5 7 9 11 12 13 13 13 12 12 13 13 13 13 12 12 12 12 12 12 13 13 13 13 13 14 14 14 14 15 14 14 14 14 14 14 14 15 15 15
8 7 6 4 1 2 4 4 6 6 9 10 12 13 13 14 14 13 13 14 14 15 15 14 13 13 13 14 14 14 14 14 14 14 14 15 15 15 15 15 15 15 14 14 15 15 16 16 16
7 6 5 4 2 2 4 5 7 9 10 11 12 14 14 15 15 14 14 15 16 16 16 15 14 14 15 15 15 15 15 15 15 15 15 15 15 16 16 16 16 16 15 15 16 16 16 17 17
7 6 6 5 3 4 6 7 8 9 11 13 14 16 16 16 16 16 16 17 17 17 16 16 15 15 15 15 15 15 15 16 16 16 16 16 16 17 17 17 17 17 17 16 17 17 17 18 18
7 6 5 4 4 4 6 9 9 10 12 13 15 16 17 17 17 17 18 17 17 17 17 17 16 16 16 16 16 16 16 16 16 17 17 17 17 18 18 18 17 18 18 17 17 18 18 18 18
7 6 4 4 4 6 9 11 12 12 13 13 14 15 16 16 17 18 19 19 18 18 17 17 17 17 17 17 17 17 17 17 17 18 18 18 18 18 19 18 18 18 18 18 18 18 18 18 18
7 7 6 4 6 8 10 12 13 13 13 13 14 15 16 17 17 18 19 19 19 18 18 17 17 18 18 19 18 18 19 18 19 19 18 19 20 20 20 19 19 18 18 18 19 19 19 19 19
8 7 6 6 8 9 10 12 14 14 14 14 15 16 17 17 19 18 18 20 20 19 18 19 19 19 19 20 20 20 20 21 21 20 20 20 21 21 21 21 20 19 19 19 20 20 20 19 19
8 7 6 7 9 9 11 13 15 15 14 15 16 16 18 18 19 19 19 20 20 20 19 20 19 19 20 21 20 20 21 22 22 22 21 21 21 22 22 22 21 21 21 21 21 21 21 20 20
8 7 6 7 9 10 11 12 13 14 15 16 17 17 18 19 19 19 19 20 21 21 20 20 20 21 21 21 21 21 22 22 22 23 23 22 22 22 23 23 23 23 23 22 22 22 22 21 21
7 7 7 7 8 9 9 11 12 14 16 17 18 18 18 20 20 20 21 22 22 20 20 20 21 22 22 22 21 21 22 23 23 23 24 23 23 24 24 24 24 23 23 23 23 22 22 22 22
6 7 6 5 6 9 11 11 13 15 17 19 20 19 20 21 22 23 23 22 21 20 21 21 22 22 23 23 23 23 23 24 24 24 24 24 24 25 25 25 25 24 23 23 22 22 21 21 22
6 6 6 6 7 11 13 13 14 16 17 19 20 21 21 22 23 23 23 22 22 22 22 22 23 24 24 24 24 24 24 25 24 24 25 25 26 25 25 25 25 24 24 24 24 23 22 21 21
6 6 6 7 8 10 13 13 14 17 18 20 22 23 23 23 23 23 22 22 22 23 23 23 24 25 25 25 25 24 24 24 23 24 25 26 26 25 26 26 24 24 24 24 24 23 22 21 21
6 8 8 7 9 11 14 16 17 19 20 21 23 24 24 23 23 23 23 23 23 24 24 23 24 25 25 25 25 25 25 25 25 26 25 25 25 25 26 24 24 24 24 23 23 22 21 21 21
7 9 9 10 10 12 14 17 19 21 22 22 23 23 24 24 24 24 24 24 24 24 23 24 25 26 26 27 26 26 26 26 27 26 25 25 26 26 25 24 23 23 23 22 22 22 22 22 21
9 12 11 11 11 14 15 16 18 20 21 22 23 22 23 25 25 26 25 25 25 25 25 25 25 26 26 27 27 27 27 27 27 27 26 25 25 23 23 23 22 22 23 22 21 21 22 22 22
11 13 12 11 12 14 15 15 16 18 19 21 22 23 24 25 26 27 26 25 26 26 27 26 26 26 27 27 27 28 28 28 27 27 26 25 24 23 23 23 22 22 22 22 21 22 22 22 22
11 13 13 12 11 13 15 16 17 19 20 21 23 22 22 24 26 27 28 28 27 27 28 28 28 28 28 29 29 29 28 27 26 26 26 25 23 23 22 22 22 23 22 22 22 22 22 22 22
10 11 12 12 12 13 16 18 18 20 22 23 23 22 23 25 27 28 29 30 29 28 29 29 30 30 30 29 29 28 27 27 26 25 25 25 24 23 23 23 22 22 21 21 22 22 22 21 21
11 11 12 12 13 14 15 18 19 22 23 23 24 25 25 26 28 29 30 30 30 30 31 31 31 31 30 29 29 28 27 26 26 26 25 24 24 23 23 23 22 22 22 22 21 21 20 21 21
12 12 12 12 12 13 15 18 20 21 22 22 25 25 26 27 27 29 30 31 32 32 33 32 31 30 30 29 28 27 26 25 25 24 24 23 23 23 23 21 21 21 21 20 20 20 21 21 21
13 13 12 11 12 14 16 18 19 20 21 22 23 24 26 27 27 28 30 31 32 32 32 31 31 30 30 29 28 27 26 25 24 23 23 23 23 21 21 21 21 20 20 20 20 20 20 20 21
12 13 14 15 15 16 17 19 19 20 22 22 23 25 26 28 29 30 31 31 31 31 31 31 30 30 30 29 27 26 25 25 23 22 22 21 21 21 20 20 20 20 19 19 20 20 20 21 21
13 14 15 16 17 17 18 19 20 21 23 24 25 26 27 29 30 30 30 30 30 31 31 30 29 30 29 28 26 25 24 22 20 19 19 19 20 20 19 19 19 19 19 19 20 19 20 20 21
14 15 15 16 18 18 18 20 22 22 24 25 26 27 28 29 30 30 30 29 29 30 30 30 29 29 28 27 25 23 22 20 20 18 17 17 17 19 19 17 18 18 18 19 19 18 18 19 20
14 15 16 17 18 20 21 22 24 24 25 26 26 28 29 30 30 30 30 29 29 30 29 28 28 27 27 26 23 21 20 19 19 18 17 17 17 17 17 17 17 17 17 18 18 18 18 19 20
15 16 17 18 19 20 22 24 25 25 26 27 27 29 29 30 30 30 30 29 30 30 28 27 26 26 25 24 23 20 19 18 18 17 17 16 16 15 16 16 17 17 16 16 17 17 17 18 19
Wind_Direction
131 125 126 123 104 81 72 46 26 349 332 339 338 340 342 338 337 335 336 340 344 343 339 334 328 323 322 319 317 314 311 309 308 306 305 303 302 302 300 299 298 295 292 287 283 280 277 275 274
134 132 130 125 101 68 53 14 352 335 332 331 324 328 329 327 331 334 334 337 339 338 337 331 325 321 319 315 313 310 308 305 306 305 304 303 302 301 299 298 297 294 291 287 284 282 280 277 274
147 146 141 141 137 43 347 341 326 331 322 320 318 322 324 325 329 333 330 329 329 329 329 324 321 319 319 315 312 310 308 305 304 306 304 301 300 298 297 296 295 294 291 288 285 283 280 278 274
162 158 161 164 170 339 318 315 310 308 307 310 314 319 322 325 328 328 326 322 322 322 322 319 316 316 315 313 310 308 306 304 303 304 302 299 297 296 295 294 294 293 291 287 284 283 281 278 276
179 183 189 196 224 290 292 303 302 291 298 304 311 317 320 323 326 328 327 322 317 316 316 316 313 308 307 307 307 306 305 302 301 300 300 297 295 294 292 291 291 291 289 286 284 283 283 281 277
194 201 210 220 243 288 296 298 299 296 305 313 315 318 319 320 324 325 324 318 315 314 313 316 313 309 305 303 304 304 303 302 301 299 298 297 295 294 291 289 288 289 288 285 283 282 280 279 277
188 195 212 228 258 280 292 295 302 304 300 308 315 317 318 319 320 322 320 316 315 315 313 312 312 307 302 299 300 300 300 300 299 297 296 294 292 293 292 289 287 287 287 286 284 282 280 279 277
197 208 226 249 274 291 293 297 303 309 307 312 315 320 320 317 318 320 318 315 314 314 313 310 308 307 304 301 299 301 300 298 298 298 296 295 292 292 291 289 286 285 285 286 285 284 282 279 277
208 222 236 257 279 295 291 298 300 305 311 316 317 319 319 316 316 318 316 314 315 313 312 310 306 306 305 304 302 302 300 299 299 297 295 293 290 289 289 288 286 284 284 284 285 284 282 278 278
218 230 244 263 280 287 289 296 301 304 309 316 318 317 317 318 316 316 315 314 313 311 311 310 307 304 303 303 300 301 299 299 298 294 292 291 289 287 287 286 285 283 283 283 283 281 279 278 277
224 238 253 267 277 281 285 292 300 309 315 317 317 317 319 319 319 319 314 313 312 311 311 309 307 305 301 302 298 296 298 297 295 290 288 287 287 286 286 286 284 283 282 283 283 280 279 277 276
238 244 261 273 280 279 280 285 296 306 312 314 315 319 319 320 319 318 314 315 312 312 313 309 307 305 302 302 300 296 296 293 292 288 285 284 283 283 285 286 284 282 281 281 281 280 278 276 274
253 256 273 286 288 290 286 289 299 310 313 316 318 319 318 320 320 319 319 316 313 313 311 309 307 307 305 304 302 298 295 295 294 289 285 283 282 281 281 282 280 279 279 277 277 277 276 276 275
261 260 269 271 280 294 295 297 309 316 316 319 320 319 317 319 321 319 318 317 312 311 309 308 309 306 305 305 304 302 299 299 296 290 284 282 283 281 279 279 279 277 276 276 276 275 275 275 273
277 274 280 281 277 288 293 301 310 310 317 320 320 319 319 321 322 320 319 318 315 311 310 309 308 308 307 305 305 304 302 300 298 294 291 285 283 281 280 279 276 274 274 275 276 276 274 274 271
286 289 301 293 284 287 291 297 302 307 314 318 319 320 319 319 320 320 320 318 316 314 312 311 310 309 307 305 303 302 302 300 298 297 291 287 285 283 279 277 276 277 278 277 274 275 272 272 270
278 295 293 283 279 288 290 295 301 305 309 314 317 318 319 320 321 319 318 318 317 317 314 313 312 309 307 305 303 301 301 300 298 299 294 288 287 287 280 277 275 279 280 276 274 274 274 274 272
280 292 290 285 287 289 286 289 294 300 305 310 312 313 316 319 323 320 318 318 319 318 315 312 313 311 309 307 303 301 301 299 297 297 294 290 288 288 285 279 275 277 277 276 277 276 275 274 271
290 292 295 296 291 285 282 285 290 299 303 308 310 311 316 319 321 320 320 320 321 320 316 312 311 311 309 307 304 302 301 300 298 296 296 293 291 287 283 282 277 275 275 274 276 275 275 273 271
289 292 294 288 282 279 282 286 291 295 297 302 306 312 317 320 318 319 319 320 320 319 316 314 311 309 307 306 304 302 301 299 298 296 295 292 289 286 285 282 275 275 275 275 275 275 275 274 273
292 291 292 294 282 281 284 288 292 297 295 298 305 311 316 317 318 318 318 317 315 315 314 313 312 310 308 306 305 304 302 299 295 292 292 290 288 286 284 283 280 278 278 275 274 274 274 273 273
293 292 290 291 289 285 288 293 297 299 302 304 310 313 317 318 319 319 317 315 315 315 315 313 312 311 310 308 307 304 302 298 295 291 290 289 286 281 281 282 281 280 277 276 276 276 274 274 274
299 299 294 289 288 284 288 293 300 302 308 309 311 312 316 317 319 318 318 317 317 316 315 314 313 312 312 309 308 307 304 300 295 290 287 285 282 280 281 281 279 278 278 276 275 275 274 274 274
300 299 296 289 286 285 291 294 297 302 307 308 310 313 315 316 318 318 317 317 317 317 317 315 313 313 312 310 308 306 305 302 297 291 286 283 283 281 280 280 279 277 278 277 275 275 276 273 272
300 301 294 286 286 291 296 299 302 307 307 309 311 314 315 317 318 317 317 318 317 317 316 315 314 314 314 312 310 306 304 302 299 293 287 284 283 283 281 280 280 278 277 277 279 279 279 275 272
301 301 301 301 299 301 303 304 308 313 314 315 315 315 315 319 319 318 319 319 319 319 318 318 318 316 315 313 310 307 304 302 298 295 291 285 283 284 283 281 280 279 280 279 279 280 281 279 274
292 295 300 300 299 299 303 305 309 315 317 317 316 317 320 321 320 321 321 320 321 321 320 320 320 317 316 315 311 308 306 303 299 297 293 288 287 285 282 280 278 279 279 280 280 282 282 283 280
289 295 301 302 303 302 303 306 310 314 316 317 319 321 322 322 322 321 322 322 321 321 321 320 320 318 318 316 314 311 309 304 299 298 295 293 289 284 283 280 276 277 281 282 281 281 282 284 285
290 293 296 299 301 303 305 307 312 313 314 317 319 320 321 322 322 324 324 322 321 321 321 320 319 317 317 316 315 314 311 307 301 298 295 291 287 284 282 277 276 279 282 282 282 283 284 287 287
292 294 295 298 302 301 302 306 312 313 313 315 316 317 318 320 322 323 322 321 320 320 321 321 319 319 319 318 317 316 315 312 308 303 298 292 288 286 283 280 279 279 281 283 282 282 284 288 290
Height
5907 5907 5907 5908 5909 5908 5907 5908 5907 5906 5906 5906 5905 5905 5905 5904 5903 5904 5900 5898 5896 5895 5894 5893 5892 5890 5889 5888 5886 5885 5884 5883 5882 5881 5880 5879 5878 5877 5876 5874 5874 5873 5872 5871 5870 5870 5869 5869 5868
5906 5907 5908 5908 5907 5907 5907 5907 5907 5907 5906 5906 5905 5905 5904 5903 5901 5900 5898 5897 5895 5894 5893 5891 5890 5888 5887 5886 5884 5883 5882 5881 5880 5879 5878 5877 5876 5875 5873 5872 5871 5870 5870 5869 5868 5867 5867 5866 5865
5906 5907 5908 5907 5907 5906 5906 5906 5906 5906 5905 5905 5905 5904 5904 5902 5900 5898 5897 5896 5894 5893 5891 5889 5888 5886 5885 5884 5882 5881 5880 5879 5878 5877 5876 5874 5873 5872 5871 5870 5869 5868 5867 5866 5865 5865 5864 5863 5862
5907 5907 5908 5908 5906 5906 5905 5905 5905 5905 5904 5904 5904 5903 5902 5900 5898 5897 5895 5894 5892 5890 5889 5887 5886 5884 5883 5882 5880 5879 5877 5876 5875 5874 5873 5872 5870 5869 5868 5867 5866 5866 5864 5863 5863 5862 5861 5860 5859
5906 5907 5907 5907 5906 5905 5904 5904 5904 5903 5903 5902 5902 5901 5900 5898 5896 5895 5893 5892 5890 5888 5886 5885 5883 5882 5880 5879 5877 5876 5874 5873 5872 5870 5869 5868 5867 5866 5865 5864 5863 5862 5862 5861 5860 5859 5858 5857 5856
5906 5906 5906 5905 5904 5903 5903 5902 5902 5902 5901 5901 5900 5899 5898 5896 5894 5893 5891 5889 5887 5885 5884 5882 5881 5879 5877 5876 5874 5873 5871 5870 5868 5867 5866 5865 5864 5862 5861 5860 5859 5858 5858 5857 5856 5855 5854 5853 5853
5905 5905 5904 5904 5903 5903 5903 5902 5901 5901 5900 5900 5899 5898 5896 5894 5892 5890 5888 5886 5884 5883 5881 5879 5877 5876 5875 5873 5871 5870 5868 5867 5865 5864 5862 5861 5860 5859 5857 5856 5855 5855 5854 5853 5852 5851 5850 5850 5849
5902 5904 5903 5903 5903 5902 5902 5901 5900 5899 5899 5899 5898 5896 5894 5892 5890 5887 5885 5883 5881 5880 5878 5876 5875 5873 5871 5869 5868 5866 5865 5863 5861 5860 5858 5857 5856 5854 5853 5852 5851 5850 5850 5849 5848 5847 5846 5846 5845
5901 5903 5902 5902 5902 5901 5900 5899 5898 5897 5897 5896 5895 5893 5892 5890 5888 5885 5882 5880 5878 5876 5875 5873 5871 5870 5868 5866 5865 5863 5861 5859 5858 5856 5854 5853 5851 5850 5849 5848 5847 5846 5845 5844 5843 5843 5842 5841 5840
5900 5900 5901 5901 5900 5899 5898 5897 5896 5895 5894 5893 5892 5891 5889 5887 5885 5883 5880 5877 5875 5873 5870 5869 5867 5866 5864 5862 5861 5859 5857 5855 5854 5852 5850 5848 5847 5846 5844 5843 5842 5841 5840 5840 5839 5838 5837 5837 5836
5898 5898 5898 5899 5898 5897 5896 5896 5894 5893 5892 5891 5890 5888 5886 5884 5882 5880 5877 5875 5872 5870 5867 5865 5863 5862 5860 5858 5856 5854 5853 5851 5849 5847 5845 5843 5842 5840 5839 5837 5837 5836 5835 5834 5833 5833 5832 5832 5831
5897 5896 5896 5896 5895 5895 5894 5894 5893 5892 5891 5889 5887 5885 5883 5881 5879 5877 5875 5872 5869 5866 5863 5861 5859 5858 5856 5854 5851 5849 5848 5845 5843 5842 5839 5837 5836 5835 5834 5832 5831 5831 5830 5829 5828 5827 5827 5826 5826
5895 5895 5895 5894 5893 5892 5892 5891 5890 5889 5888 5886 5884 5882 5880 5878 5876 5874 5871 5868 5865 5862 5859 5856 5854 5852 5850 5848 5846 5844 5842 5839 5837 5835 5833 5831 5830 5829 5828 5827 5826 5825 5824 5823 5822 5822 5821 5820 5820
5893 5893 5893 5892 5891 5890 5889 5888 5887 5886 5885 5883 5881 5879 5877 5875 5872 5869 5866 5864 5861 5858 5855 5852 5850 5847 5845 5843 5840 5838 5835 5834 5831 5829 5826 5825 5824 5823 5821 5820 5819 5818 5818 5817 5816 5815 5815 5814 5814
5891 5891 5891 5890 5888 5887 5887 5886 5884 5883 5881 5879 5878 5876 5874 5871 5868 5865 5862 5859 5856 5853 5850 5848 5845 5842 5839 5837 5834 5832 5830 5827 5824 5822 5820 5818 5817 5816 5815 5813 5812 5812 5812 5811 5810 5809 5809 5809 5808
5890 5889 5888 5888 5885 5885 5885 5883 5881 5879 5878 5876 5874 5873 5870 5867 5864 5861 5858 5854 5851 5848 5845 5842 5839 5836 5834 5831 5828 5826 5824 5821 5818 5816 5814 5811 5810 5808 5807 5806 5805 5805 5805 5804 5803 5803 5803 5802 5802
5888 5887 5886 5885 5883 5882 5881 5879 5878 5876 5875 5873 5871 5869 5866 5864 5861 5857 5853 5850 5846 5843 5840 5836 5833 5830 5828 5825 5822 5820 5817 5815 5812 5810 5807 5804 5802 5800 5798 5798 5798 5798 5798 5797 5797 5797 5796 5796 5796
5886 5884 5883 5882 5881 5880 5878 5877 5875 5873 5871 5869 5867 5865 5863 5860 5856 5852 5848 5845 5842 5838 5834 5831 5828 5825 5821 5818 5816 5813 5811 5808 5805 5803 5801 5798 5796 5794 5793 5792 5791 5791 5792 5791 5790 5790 5790 5790 5790
5883 5882 5881 5880 5879 5877 5875 5874 5872 5870 5868 5866 5863 5861 5858 5855 5851 5848 5843 5840 5837 5833 5830 5827 5824 5820 5816 5812 5809 5806 5804 5801 5799 5796 5793 5791 5789 5787 5787 5786 5785 5785 5785 5785 5784 5784 5784 5783 5783
5880 5880 5879 5878 5876 5874 5872 5871 5870 5868 5865 5862 5859 5857 5853 5851 5847 5843 5838 5835 5831 5828 5824 5821 5818 5814 5810 5806 5802 5799 5796 5794 5791 5788 5786 5785 5783 5781 5781 5780 5779 5779 5778 5778 5778 5777 5777 5777 5777
5878 5877 5876 5875 5873 5872 5869 5868 5866 5864 5861 5859 5856 5853 5850 5846 5842 5839 5834 5830 5826 5822 5818 5815 5811 5808 5804 5800 5796 5792 5789 5786 5784 5782 5780 5779 5777 5776 5775 5774 5773 5772 5771 5771 5771 5771 5770 5770 5770
5875 5874 5873 5872 5870 5869 5867 5864 5862 5860 5858 5855 5852 5849 5846 5842 5838 5834 5829 5825 5820 5816 5812 5808 5804 5801 5796 5792 5788 5785 5782 5779 5777 5775 5773 5772 5770 5769 5768 5767 5766 5765 5764 5764 5764 5764 5763 5763 5763
5871 5871 5870 5869 5867 5866 5864 5861 5860 5856 5854 5851 5848 5845 5842 5838 5834 5829 5824 5819 5814 5810 5805 5801 5797 5793 5788 5784 5781 5777 5774 5771 5769 5767 5765 5764 5763 5762 5761 5760 5759 5758 5758 5757 5757 5757 5757 5756 5756
5869 5868 5867 5866 5865 5863 5861 5858 5856 5853 5850 5847 5844 5840 5837 5833 5830 5824 5819 5814 5809 5804 5798 5793 5789 5785 5780 5776 5773 5769 5767 5764 5761 5759 5757 5756 5755 5755 5754 5753 5752 5752 5751 5750 5750 5750 5749 5749 5749
5867 5866 5865 5863 5861 5860 5857 5855 5853 5850 5846 5844 5840 5837 5833 5829 5825 5820 5814 5808 5803 5797 5792 5786 5782 5777 5773 5768 5764 5761 5759 5757 5754 5752 5750 5749 5748 5747 5747 5746 5745 5745 5745 5744 5744 5743 5743 5742 5742
5864 5863 5862 5860 5858 5856 5854 5851 5849 5846 5842 5839 5836 5832 5828 5824 5819 5814 5808 5802 5797 5791 5785 5780 5775 5770 5766 5761 5757 5754 5752 5750 5747 5745 5743 5742 5741 5741 5740 5739 5739 5739 5739 5738 5738 5737 5736 5735 5735
5861 5859 5858 5856 5854 5852 5850 5847 5844 5842 5839 5835 5831 5826 5822 5818 5813 5808 5802 5797 5791 5785 5780 5774 5769 5764 5759 5755 5751 5748 5745 5743 5740 5738 5737 5735 5735 5734 5734 5733 5733 5733 5732 5732 5731 5731 5730 5729 5728
5858 5856 5855 5853 5850 5848 5846 5844 5841 5838 5835 5831 5826 5821 5817 5812 5808 5803 5797 5792 5786 5781 5775 5769 5764 5759 5754 5750 5745 5742 5739 5736 5734 5732 5731 5729 5728 5728 5728 5727 5727 5727 5726 5726 5725 5725 5724 5723 5722
5855 5853 5851 5849 5847 5844 5841 5841 5837 5833 5829 5826 5821 5817 5812 5808 5803 5797 5792 5787 5782 5776 5771 5765 5760 5755 5750 5745 5740 5736 5733 5731 5729 5727 5725 5724 5723 5722 5722 5722 5722 5721 5721 5721 5720 5719 5718 5717 5715
5852 5850 5847 5845 5843 5840 5837 5837 5831 5828 5824 5821 5817 5812 5808 5803 5798 5792 5787 5782 5777 5771 5766 5760 5755 5750 5745 5740 5736 5732 5729 5726 5724 5722 5719 5718 5717 5717 5716 5716 5716 5716 5716 5715 5714 5713 5712 5711 5709